Location: *
(53.9002°N, 27.5624°E)
Time: 16:15:17
(UTC+00:00)

ATLAS 5 CENTAUR R/B - Pass Details

Date: 12 November 2019
Orbit: 563 x 1096 km, 63.3° (Epoch: 09 December)

Event Time Altitude Azimuth Distance (km) Brightness Sun altitude
Rises 15:01:42 0° 309° (NW) 3,160 5.6 -6.9°
Reaches altitude 10° 15:03:58 10° 313° (NW) 2,312 4.9 -7.2°
Maximum altitude 15:09:16 60° 34° (NE) 976 2.3 -7.9°
Drops below altitude 10° 15:15:25 10° 114° (ESE) 2,670 4.4 -8.8°
Sets 15:18:12 0° 118° (ESE) 3,690 5.1 -9.1°
